[[{"header":{"parameterUnit":"m.s-1","parameterCategory":1,"la1":30.2991,"la2":30.254,"lo1":-89.0895,"lo2":-89.0444,"dy":0.0017,"dx":0.0017,"nx":28,"ny":28,"refTime":"2025-12-24T09:00:00:Z","depth":0,"parameterNumber":2,"parameterNumberName":"U-component_of_WINDS"},"data":[0,0,0,0,0,0,0,0,0,0,0,0,0,0,0,0,0,0,0,0,0,0,0,0,0,0,0,0,0,0,0,0,0,0,0,0,0,0,0,0,0,0,0,0,0,0,0,0,0,0,0,0,0,0,0,0,0,0,1.629,1.629,0,1.6357,1.6358,1.6359,1.633,1.6328,1.6327,1.6325,1.6397,1.64,1.6403,0,0,0,0,0,0,0,0,0,0,0,0,0,1.6137,1.614,1.6289,1.629,1.6291,1.6357,1.6358,1.6359,1.633,1.6328,1.6326,1.6324,1.6396,1.64,1.6404,0,0,0,0,0,0,0,0,0,0,0,0,0,1.6204,1.6141,1.6289,1.6285,1.6285,1.6357,1.6358,1.6359,1.6331,1.6328,1.6326,1.6323,1.6394,1.6399,1.6404,1.6486,0,0,1.642,1.6422,0,0,0,0,0,0,0,0,1.62,1.621,1.6284,1.6285,1.6285,1.6333,1.6331,1.6402,1.6331,1.6313,1.6325,1.6322,1.6378,1.6384,1.6402,1.6489,1.6492,1.6421,1.6424,1.6426,1.6427,0,0,0,0,0,0,0,1.6196,1.6207,1.6316,1.6286,1.6286,1.628,1.6287,1.6344,1.6359,1.6315,1.6313,1.6321,1.6377,1.6397,1.6404,1.6493,1.642,1.6425,1.6428,1.643,1.6652,1.6654,0,0,0,0,0,0,1.6191,1.6203,1.6314,1.6318,1.6236,1.6285,1.6292,1.632,1.6358,1.6361,1.6323,1.632,1.639,1.6398,1.6406,1.6504,1.6426,1.6431,1.6434,1.6649,1.6652,1.6655,0,0,0,0,0,0,1.6188,1.6201,1.6311,1.626,1.6274,1.629,1.6321,1.6323,1.6342,1.6364,1.6367,1.6341,1.6388,1.6399,1.6466,1.6506,1.6433,1.6438,1.6646,1.665,1.6654,1.6701,0,0,0,0,0,0,1.6183,1.62,1.623,1.6261,1.6277,1.637,1.6324,1.6326,1.6351,1.6347,1.6381,1.6385,1.6387,1.6459,1.6471,1.6512,1.6442,1.6642,1.6647,1.6652,1.6696,1.6707,1.6715,0,0,0,0,0,1.6178,1.6241,1.6232,1.6246,1.6315,1.6372,1.6381,1.6382,1.6355,1.6386,1.64,1.6384,1.65,1.6466,1.648,1.6523,1.6639,1.6646,1.6652,1.6692,1.6705,1.6715,0,0,0,0,0,0,1.6215,1.6245,1.6235,1.631,1.6339,1.6367,1.6406,1.6395,1.6433,1.6427,1.6427,1.6435,1.6505,1.6521,1.6482,1.6604,1.6566,1.6575,1.6591,1.6603,1.6613,1.6608,1.6446,0,0,0,0,0,1.6232,1.6275,1.63,1.6363,1.6378,1.639,1.6415,1.6413,1.6443,1.6455,1.6474,1.6505,1.6548,1.6577,1.6618,1.6699,1.6706,1.6735,1.6745,1.6753,1.6761,1.6805,1.6819,1.6676,1.6676,1.6676,0,0,1.6267,1.6289,1.6316,1.6371,1.6393,1.6439,1.64,1.645,1.6484,1.6463,1.6528,1.6543,1.6577,1.6652,1.6685,1.6667,1.6802,1.6761,1.6767,1.677,1.6813,1.6827,1.6839,1.668,1.6679,1.6679,0,0,1.6355,1.6376,1.6431,1.6454,1.6488,1.6496,1.6509,1.654,1.6549,1.6614,1.6599,1.664,1.6715,1.674,1.6762,1.6861,1.6848,1.6875,1.6925,1.6968,1.698,1.699,1.7025,1.7038,1.6883,1.6883,1.6883,0,1.6395,1.6462,1.6462,1.6513,1.6538,1.6521,1.6578,1.66,1.6646,1.6664,1.6643,1.6736,1.6758,1.6839,1.6863,1.6882,1.6898,1.687,1.6978,1.6988,1.6997,1.7031,1.7045,1.6886,1.6886,1.6885,1.6885,0,1.651,1.6557,1.6598,1.6643,1.6673,1.6727,1.6735,1.6765,1.6761,1.6772,1.6839,1.6864,1.691,1.693,1.6926,1.701,1.6998,1.6977,1.6939,1.7014,1.7046,1.7059,1.689,1.6889,1.6888,1.6887,0,0,1.6622,1.6666,1.6681,1.6701,1.6738,1.6775,1.6829,1.6874,1.69,1.6933,1.6978,1.7043,1.7024,1.705,1.7049,1.7088,1.7165,1.7063,1.7063,1.7081,1.726,1.7275,1.729,1.7156,1.7159,1.7161,1.7257,0,1.6712,1.6806,1.6808,1.6894,1.6938,1.6923,1.697,1.6998,1.701,1.7049,1.7062,1.7108,1.708,1.7095,1.7132,1.7148,1.7201,1.7141,1.7199,1.7202,1.7191,1.7307,1.7322,1.7412,1.727,1.7272,1.7273,0,1.683,1.6866,1.6957,1.6988,1.7007,1.7049,1.7091,1.7129,1.7161,1.7167,1.7196,1.719,1.7246,1.7206,1.7284,1.7243,1.7267,1.7278,1.7282,1.7287,1.7242,1.7315,1.744,1.7454,1.7293,1.7291,1.729,0,1.6903,1.6975,1.7038,1.7056,1.7094,1.7124,1.7142,1.7171,1.7199,1.7236,1.7253,1.7297,1.7321,1.7355,1.7361,1.7331,1.7439,1.7399,1.7446,1.7446,1.7469,1.7467,1.76,1.7485,1.7485,1.7484,1.7484,0,1.7004,1.706,1.7072,1.7111,1.7174,1.7176,1.7238,1.7253,1.728,1.7322,1.7312,1.7353,1.7359,1.7401,1.7406,1.747,1.7481,1.7487,1.7488,1.7488,1.7487,1.7504,1.7498,1.7488,1.7487,1.7487,1.7486,0,1.7095,1.7105,1.7174,1.7205,1.7214,1.7259,1.7285,1.7323,1.7334,1.7388,1.7401,1.7418,1.7467,1.7477,1.7535,1.7539,1.7615,1.7609,1.7604,1.7603,1.7649,1.7645,1.7797,1.7817,1.7689,1.769,1.7691,0,1.7159,1.7202,1.7237,1.7265,1.7284,1.7328,1.7356,1.736,1.739,1.743,1.7464,1.7512,1.755,1.763,1.7648,1.7692,1.7688,1.7738,1.7694,1.7693,1.7689,1.7686,1.7691,1.7746,1.7748,1.7749,1.775,0,1.7271,1.7274,1.7314,1.7357,1.739,1.7424,1.7456,1.748,1.7489,1.7523,1.7572,1.7602,1.7662,1.771,1.7755,1.7773,1.7764,1.7764,1.7777,1.7777,1.7772,1.7775,1.7626,1.776,1.7759,1.7758,1.7758,1.7757,1.735,1.7388,1.7419,1.7464,1.7489,1.752,1.7557,1.7573,1.7614,1.7663,1.7663,1.7718,1.775,1.7809,1.7831,1.7875,1.7859,1.7878,1.7883,1.7887,1.7891,1.7765,1.7883,1.7882,1.7882,1.7882,1.7882,0,1.7461,1.7481,1.7523,1.7568,1.7604,1.7592,1.7627,1.7659,1.7707,1.7738,1.7776,1.7834,1.7881,1.7903,1.7949,1.798,1.7976,1.7992,1.7989,1.7994,1.7903,1.7887,1.7994,1.7994,1.7994,1.7994,1.7994,1.7994,1.7523,1.7586,1.7594,1.767,1.7689,1.7742,1.7763,1.7792,1.7817,1.7882,1.792,1.7935,1.7962,1.8011,1.8054,1.8059,1.8076,1.8094,1.8097,1.8012,1.8,1.7989,1.7974,1.8098,1.8098,1.8185,1.8186,1.8186]},{"header":{"parameterUnit":"m.s-1","parameterCategory":1,"la1":30.2991,"la2":30.254,"lo1":-89.0895,"lo2":-89.0444,"dy":0.0017,"dx":0.0017,"nx":28,"ny":28,"refTime":"2025-12-24T09:00:00:Z","depth":0,"parameterNumber":3,"parameterNumberName":"V-component_of_WINDS"},"data":[0,0,0,0,0,0,0,0,0,0,0,0,0,0,0,0,0,0,0,0,0,0,0,0,0,0,0,0,0,0,0,0,0,0,0,0,0,0,0,0,0,0,0,0,0,0,0,0,0,0,0,0,0,0,0,0,0,0,0.9466,0.9467,0,0.9482,0.9482,0.9482,0.9497,0.9497,0.9498,0.9498,0.9512,0.9512,0.9513,0,0,0,0,0,0,0,0,0,0,0,0,0,0.9448,0.9448,0.9466,0.9467,0.9467,0.9482,0.9482,0.9482,0.9497,0.9497,0.9498,0.9498,0.9512,0.9512,0.9513,0,0,0,0,0,0,0,0,0,0,0,0,0,0.9459,0.9448,0.9466,0.9476,0.9477,0.9482,0.9482,0.9482,0.9497,0.9497,0.9498,0.9498,0.9512,0.9512,0.9513,0.9508,0,0,0.9514,0.9514,0,0,0,0,0,0,0,0,0.9458,0.946,0.9474,0.9475,0.9477,0.9488,0.9481,0.9491,0.9497,0.9489,0.9498,0.9498,0.9504,0.9505,0.9507,0.9509,0.951,0.9514,0.9514,0.9514,0.9514,0,0,0,0,0,0,0,0.9458,0.9459,0.9472,0.9475,0.9476,0.9479,0.9481,0.9483,0.9495,0.949,0.9491,0.9493,0.9504,0.9507,0.9507,0.951,0.9514,0.9514,0.9514,0.9514,0.9508,0.9508,0,0,0,0,0,0,0.9456,0.9458,0.9472,0.9473,0.9468,0.9479,0.9481,0.9484,0.9495,0.9497,0.9493,0.9494,0.9506,0.9507,0.9508,0.9503,0.9514,0.9514,0.9514,0.9508,0.9508,0.9508,0,0,0,0,0,0,0.9455,0.9457,0.9471,0.9466,0.9468,0.9479,0.9482,0.9484,0.9486,0.9497,0.9499,0.9493,0.9506,0.9508,0.9508,0.9504,0.9514,0.9515,0.9509,0.9508,0.9508,0.9493,0,0,0,0,0,0,0.9455,0.9456,0.9455,0.9466,0.9468,0.9472,0.9482,0.9484,0.9487,0.9488,0.9497,0.9499,0.9507,0.9507,0.9508,0.9504,0.9515,0.9509,0.9509,0.9508,0.9494,0.9492,0.9491,0,0,0,0,0,0.9454,0.9451,0.9455,0.9457,0.9467,0.9471,0.9473,0.9482,0.9487,0.9485,0.9492,0.9499,0.9504,0.9507,0.9508,0.9504,0.951,0.9509,0.9508,0.9495,0.9492,0.9491,0,0,0,0,0,0,0.9439,0.9452,0.9458,0.9458,0.9463,0.9474,0.9473,0.9479,0.9483,0.9484,0.9495,0.9497,0.9496,0.95,0.9504,0.95,0.9508,0.9507,0.9497,0.9495,0.9493,0.9492,0.9515,0,0,0,0,0,0.9436,0.9439,0.945,0.9449,0.9451,0.9461,0.9464,0.947,0.9476,0.9478,0.9485,0.949,0.9493,0.9494,0.9498,0.9495,0.9496,0.9492,0.9491,0.9489,0.9488,0.9486,0.9484,0.9505,0.9505,0.9505,0,0,0.943,0.9437,0.9438,0.9446,0.9451,0.9453,0.9463,0.9465,0.9466,0.9478,0.9479,0.9484,0.949,0.9489,0.9489,0.9493,0.9483,0.9488,0.9487,0.9487,0.9485,0.9483,0.9481,0.9505,0.9505,0.9505,0,0,0.9418,0.9425,0.9424,0.9429,0.9436,0.9443,0.9443,0.9452,0.9456,0.9457,0.9466,0.9467,0.9472,0.9476,0.9478,0.9468,0.9474,0.9468,0.9459,0.9457,0.9455,0.9454,0.9449,0.9447,0.9468,0.9467,0.9467,0,0.9409,0.9413,0.9423,0.9424,0.9427,0.9438,0.9437,0.9441,0.9449,0.945,0.9455,0.946,0.9465,0.9464,0.9462,0.9464,0.9463,0.9467,0.9454,0.9453,0.9452,0.9447,0.9446,0.9467,0.9467,0.9467,0.9467,0,0.94,0.9403,0.9401,0.9409,0.9411,0.9411,0.9421,0.9422,0.9428,0.9434,0.9434,0.944,0.9445,0.9445,0.9451,0.9444,0.9447,0.9453,0.946,0.9449,0.9445,0.9443,0.9466,0.9466,0.9466,0.9466,0,0,0.9381,0.9393,0.9392,0.9396,0.9404,0.9406,0.9406,0.941,0.9411,0.9416,0.9415,0.9419,0.9424,0.9427,0.9433,0.9431,0.9421,0.9437,0.9438,0.9433,0.9413,0.9408,0.9406,0.9425,0.9425,0.9425,0.9412,0,0.937,0.9371,0.938,0.9378,0.938,0.939,0.939,0.9395,0.94,0.9402,0.9407,0.9409,0.9417,0.9418,0.9417,0.9422,0.9417,0.9424,0.9424,0.9424,0.9421,0.9404,0.9398,0.9386,0.9411,0.941,0.941,0,0.9359,0.9363,0.9361,0.9369,0.937,0.937,0.9374,0.9375,0.9381,0.9384,0.9387,0.9394,0.9394,0.9401,0.9401,0.9405,0.9406,0.9408,0.9408,0.9408,0.9416,0.9402,0.9382,0.938,0.9408,0.9408,0.9408,0,0.9343,0.9348,0.9348,0.935,0.936,0.9359,0.9363,0.9368,0.937,0.9373,0.9374,0.9378,0.9379,0.9381,0.9388,0.9394,0.9386,0.9395,0.9388,0.9388,0.9386,0.9386,0.9365,0.9388,0.9388,0.9388,0.9388,0,0.933,0.9329,0.9341,0.934,0.9338,0.9348,0.9346,0.935,0.9355,0.9355,0.9364,0.9364,0.9374,0.9375,0.938,0.9378,0.9379,0.9381,0.9383,0.938,0.938,0.938,0.9381,0.9387,0.9387,0.9388,0.9388,0,0.9313,0.9321,0.9321,0.9329,0.9332,0.933,0.9337,0.9336,0.9342,0.9342,0.9342,0.9351,0.9352,0.9359,0.9362,0.9366,0.9361,0.9365,0.9359,0.936,0.9353,0.9353,0.9331,0.9328,0.9354,0.9353,0.9353,0,0.9304,0.9303,0.9311,0.9312,0.9315,0.9316,0.9318,0.9327,0.9328,0.9334,0.9332,0.9334,0.9336,0.9337,0.9343,0.9345,0.9348,0.934,0.9348,0.9345,0.9346,0.9346,0.9345,0.9338,0.9338,0.9337,0.9337,0,0.9286,0.929,0.9292,0.9296,0.9297,0.93,0.9304,0.9304,0.9314,0.9314,0.9315,0.9317,0.9319,0.9321,0.9323,0.9327,0.9333,0.9335,0.9333,0.933,0.9326,0.9327,0.9353,0.9335,0.9335,0.9335,0.9335,0.9336,0.9272,0.9271,0.9277,0.9278,0.9282,0.9285,0.9284,0.929,0.9291,0.9294,0.9299,0.9299,0.9303,0.9308,0.931,0.931,0.9314,0.9312,0.9311,0.9311,0.9309,0.9327,0.9311,0.9311,0.9311,0.9311,0.9311,0,0.9254,0.9258,0.926,0.9264,0.9265,0.9272,0.9276,0.9276,0.9276,0.928,0.9281,0.9282,0.9283,0.9289,0.929,0.9289,0.9292,0.9289,0.9288,0.9289,0.9306,0.9306,0.9286,0.9286,0.9286,0.9286,0.9286,0.9286,0.9245,0.9244,0.9248,0.9248,0.9251,0.9252,0.9253,0.9255,0.9258,0.9259,0.926,0.9264,0.9268,0.9269,0.927,0.9272,0.9272,0.9267,0.927,0.9285,0.9288,0.929,0.9291,0.9267,0.9267,0.9253,0.9253,0.9253]}]]